Simultaneous Nadir Overpasses (SNOs) Predictions

Prediction of SNOs between METOP-A and NOAA-19 Satellite Orbit:

Table of predicted SNOs for the next 14.0 days since TLE Epoch: 3/30/2012
Index Date (METOP-A) Time (METOP-A) METOP-A Lat,Lon Date (NOAA-19) Time (NOAA-19) NOAA-19 Lat,Lon Distance(km) Time Diff (sec)
1 04/07/2012 08:04:47 73.37, 52.02 04/07/2012 08:03:35 73.36, 50.88 36.38 72
2 04/07/2012 08:55:34 -73.11,-141.24 04/07/2012 08:54:28 -73.08,-141.23 3.20 66
3 04/07/2012 09:46:15 73.05, 25.97 04/07/2012 09:45:34 73.04, 26.06 3.12 41
4 04/07/2012 10:36:57 -73.03,-166.73 04/07/2012 10:36:33 -73.06,-166.71 2.99 24
5 04/07/2012 11:27:37 73.02, 0.58 04/07/2012 11:27:39 73.03, 0.58 0.21 2
6 04/07/2012 12:18:19 -73.01, 167.88 04/07/2012 12:18:37 -72.99, 167.91 2.32 18
7 04/07/2012 13:08:58 73.00, -24.81 04/07/2012 13:09:43 73.01, -24.90 3.23 45
8 04/07/2012 13:59:40 -72.99, 142.49 04/07/2012 14:00:41 -72.98, 142.43 2.72 61
9 04/07/2012 14:50:30 72.47, -51.24 04/07/2012 14:51:39 72.54, -49.43 61.05 69




NCC Satellite Simultaneous Nadir Overpasses (SNOs) Prediction Service
